GSAT0211 (GALILEO 14)

Last updated on Nov. 15, 2019, 4:20 a.m. UTC

1 41549U 16030A   19318.04116247 -.00000016  00000-0  00000+0 0  9997
2 41549  56.4686 287.8844 0004544 296.2374  63.6901  1.70474416 21610
UTC
Height (km)
Latitude
Longitude
Inclination
Orbital Period
UTC large
Height (km)
Speed (km/s)
/
Latitude / Longitude
Inclination (degrees)
Orbital Period (minutes)
Azimuth
Elevation
Range (km)
Doppler Factor
iOS Compass Heading
iOS Angle

Next 30 passes for location: Hong Kong

Rise time Rise Azimuth (degrees) Set time Set Azimuth (degrees) Duration Max altitude (degrees)

No matching passes for this satellites